• In Uzbekistan
  • List of Countries
  • For 7 days
  • Water Temperature
  • Satellite Maps
  • Weather Map
  • Weather Widgets
  • user-avatar
    Login

    Hourly Weather Shusha

    Today, 25 February, Saturday

    Time Temperature Precipitation Wind Pressure Humidity
    00:00 +1°C° 0 mm 2 mps 662 mmHg 76%
    01:00 -1°C° 0 mm 2 mps 662 mmHg 76%
    02:00 -1°C° 0 mm 2 mps 662 mmHg 76%
    03:00 -1°C° 0 mm 2 mps 662 mmHg 77%
    04:00 -1°C° 0 mm 2 mps 662 mmHg 77%
    05:00 -2°C° 0 mm 2 mps 662 mmHg 76%
    06:00 -2°C° 0 mm 2 mps 662 mmHg 76%
    07:00 +1°C° 0 mm 2 mps 662 mmHg 74%
    08:00 +3°C° 0 mm 2 mps 663 mmHg 71%
    09:00 +5°C° 0 mm 2 mps 663 mmHg 69%
    10:00 +7°C° 0 mm 1 mps 664 mmHg 65%
    11:00 +9°C° 0 mm 1 mps 664 mmHg 60%
    12:00 +10°C° 0 mm 1 mps 664 mmHg 56%
    13:00 +10°C° 0 mm 1 mps 663 mmHg 57%
    14:00 +11°C° 0 mm 1 mps 663 mmHg 57%
    15:00 +11°C° 0 mm 1 mps 663 mmHg 60%
    16:00 +8°C° 0 mm 1 mps 662 mmHg 65%
    17:00 +6°C° 0 mm 1 mps 661 mmHg 69%
    18:00 +4°C° 0 mm 1 mps 661 mmHg 74%
    19:00 +3°C° 0 mm 1 mps 661 mmHg 73%
    20:00 +2°C° 0 mm 2 mps 661 mmHg 72%
    21:00 +2°C° 0 mm 2 mps 661 mmHg 71%
    22:00 +1°C° 0 mm 2 mps 660 mmHg 70%
    23:00 0°C° 0 mm 3 mps 660 mmHg 69%

    Tomorrow, 26 February, Sunday

    Time Temperature Precipitation Wind Pressure Humidity
    00:00 0°C° 0 mm 3 mps 660 mmHg 68%
    01:00 0°C° 0 mm 3 mps 659 mmHg 68%
    02:00 0°C° 0 mm 3 mps 659 mmHg 67%
    03:00 -1°C° 0 mm 3 mps 659 mmHg 67%
    04:00 -1°C° 0 mm 3 mps 659 mmHg 67%
    05:00 -1°C° 0 mm 3 mps 659 mmHg 67%
    06:00 -1°C° 0 mm 3 mps 658 mmHg 67%
    07:00 +1°C° 0 mm 3 mps 659 mmHg 63%
    08:00 +4°C° 0 mm 2 mps 659 mmHg 60%
    09:00 +6°C° 0 mm 2 mps 660 mmHg 56%
    10:00 +7°C° 0 mm 2 mps 660 mmHg 52%
    11:00 +10°C° 0 mm 1 mps 660 mmHg 48%
    12:00 +11°C° 0 mm 1 mps 661 mmHg 44%
    13:00 +11°C° 0 mm 1 mps 660 mmHg 47%
    14:00 +10°C° 0 mm 2 mps 660 mmHg 50%
    15:00 +9°C° 0 mm 2 mps 660 mmHg 52%
    16:00 +7°C° 0 mm 2 mps 660 mmHg 58%
    17:00 +6°C° 0 mm 1 mps 660 mmHg 65%
    18:00 +4°C° 0 mm 1 mps 660 mmHg 71%
    19:00 +3°C° 0 mm 2 mps 660 mmHg 75%
    20:00 +2°C° 0 mm 2 mps 661 mmHg 79%
    21:00 +1°C° 0 mm 2 mps 661 mmHg 83%
    22:00 -1°C° 0 mm 2 mps 661 mmHg 85%
    23:00 -1°C° 0 mm 2 mps 662 mmHg 87%

    Day after tomorrow, 27 February, Monday

    Time Temperature Precipitation Wind Pressure Humidity
    00:00 -2°C° 0 mm 2 mps 662 mmHg 89%
    01:00 -2°C° 0 mm 2 mps 662 mmHg 90%
    02:00 -2°C° 0 mm 2 mps 662 mmHg 90%
    03:00 -3°C° 0 mm 2 mps 662 mmHg 90%
    04:00 -3°C° 0 mm 2 mps 662 mmHg 90%
    05:00 -1°C° 0 mm 1 mps 662 mmHg 90%
    06:00 -1°C° 0 mm 1 mps 662 mmHg 89%
    07:00 0°C° 0 mm 1 mps 662 mmHg 85%
    08:00 -1°C° 0 mm 2 mps 663 mmHg 81%
    09:00 +1°C° 0 mm 2 mps 663 mmHg 77%
    10:00 +2°C° 0 mm 2 mps 663 mmHg 75%
    11:00 +2°C° 0 mm 2 mps 663 mmHg 72%
    12:00 +3°C° 0 mm 2 mps 663 mmHg 69%
    13:00 +4°C° 0 mm 2 mps 662 mmHg 70%
    14:00 +4°C° 0 mm 2 mps 662 mmHg 70%
    15:00 +4°C° 0 mm 2 mps 661 mmHg 70%
    16:00 +4°C° 0 mm 1 mps 661 mmHg 76%
    17:00 +2°C° 0 mm 1 mps 661 mmHg 82%
    18:00 +1°C° 0 mm 1 mps 660 mmHg 88%
    19:00 +1°C° 0 mm 1 mps 660 mmHg 89%
    20:00 0°C° 0 mm 1 mps 661 mmHg 89%
    21:00 -1°C° 0 mm 0 mps 661 mmHg 90%
    22:00 -1°C° 0 mm 0 mps 661 mmHg 88%
    23:00 -1°C° 0 mm 0 mps 660 mmHg 87%

    28 February, Tuesday

    Time Temperature Precipitation Wind Pressure Humidity
    00:00 0°C° 0 mm 1 mps 660 mmHg 86%
    01:00 0°C° 0 mm 1 mps 660 mmHg 85%
    02:00 0°C° 0 mm 1 mps 660 mmHg 84%
    03:00 -1°C° 0 mm 1 mps 660 mmHg 83%
    04:00 -1°C° 0 mm 1 mps 660 mmHg 82%
    05:00 -1°C° 0 mm 1 mps 660 mmHg 82%
    06:00 -1°C° 0 mm 1 mps 660 mmHg 81%
    07:00 +1°C° 0 mm 1 mps 661 mmHg 75%
    08:00 +2°C° 0 mm 0 mps 662 mmHg 69%
    09:00 +4°C° 0 mm 0 mps 663 mmHg 62%
    10:00 +6°C° 0 mm 1 mps 663 mmHg 60%
    11:00 +7°C° 0 mm 1 mps 663 mmHg 57%
    12:00 +9°C° 0 mm 1 mps 663 mmHg 54%
    13:00 +9°C° 0 mm 1 mps 662 mmHg 55%
    14:00 +9°C° 0 mm 1 mps 662 mmHg 57%
    15:00 +8°C° 0 mm 2 mps 662 mmHg 58%
    16:00 +7°C° 0 mm 1 mps 662 mmHg 66%
    17:00 +5°C° 0 mm 1 mps 661 mmHg 75%
    18:00 +3°C° 0 mm 1 mps 661 mmHg 83%
    19:00 +3°C° 0 mm 1 mps 661 mmHg 85%
    20:00 +2°C° 0 mm 1 mps 662 mmHg 86%
    21:00 +2°C° 0 mm 1 mps 662 mmHg 88%
    22:00 +2°C° 0 mm 1 mps 662 mmHg 89%
    23:00 0°C° 0 mm 0 mps 662 mmHg 89%

    1 March, Wednesday

    Time Temperature Precipitation Wind Pressure Humidity
    00:00 0°C° 0 mm 0 mps 662 mmHg 90%
    01:00 0°C° 0 mm 0 mps 662 mmHg 89%
    02:00 +1°C° 0 mm 1 mps 662 mmHg 87%
    03:00 +1°C° 0 mm 1 mps 661 mmHg 86%
    04:00 0°C° 0 mm 1 mps 661 mmHg 85%
    05:00 0°C° 0 mm 1 mps 662 mmHg 83%
    06:00 0°C° 0 mm 1 mps 662 mmHg 82%
    07:00 +2°C° 0 mm 1 mps 662 mmHg 76%
    08:00 +4°C° 0 mm 1 mps 663 mmHg 69%
    09:00 +5°C° 0 mm 0 mps 664 mmHg 63%
    10:00 +8°C° 0 mm 1 mps 664 mmHg 60%
    11:00 +9°C° 0 mm 1 mps 664 mmHg 57%
    12:00 +9°C° 0 mm 2 mps 664 mmHg 54%
    13:00 +9°C° 0 mm 2 mps 663 mmHg 56%
    14:00 +9°C° 0 mm 2 mps 663 mmHg 57%
    15:00 +9°C° 0 mm 2 mps 662 mmHg 59%
    16:00 +8°C° 0 mm 1 mps 662 mmHg 67%
    17:00 +6°C° 0 mm 1 mps 661 mmHg 76%
    18:00 +4°C° 0 mm 1 mps 661 mmHg 85%
    19:00 +4°C° 0 mm 1 mps 660 mmHg 86%
    20:00 +3°C° 0 mm 1 mps 660 mmHg 87%
    21:00 +2°C° 0 mm 0 mps 660 mmHg 88%
    22:00 +3°C° 0 mm 1 mps 660 mmHg 87%
    23:00 +2°C° 0 mm 1 mps 660 mmHg 87%

    2 March, Thursday

    Time Temperature Precipitation Wind Pressure Humidity
    00:00 +2°C° 0 mm 1 mps 659 mmHg 86%
    01:00 +2°C° 0 mm 1 mps 659 mmHg 86%
    02:00 +2°C° 0 mm 1 mps 658 mmHg 85%
    03:00 +1°C° 0 mm 1 mps 658 mmHg 85%
    04:00 +1°C° 0 mm 1 mps 658 mmHg 84%
    05:00 +1°C° 0 mm 1 mps 658 mmHg 83%
    06:00 +1°C° 0 mm 1 mps 658 mmHg 83%
    07:00 +3°C° 0 mm 1 mps 658 mmHg 76%
    08:00 +5°C° 0 mm 1 mps 658 mmHg 70%
    09:00 +7°C° 0 mm 1 mps 659 mmHg 64%
    10:00 +8°C° 0 mm 1 mps 658 mmHg 62%
    11:00 +9°C° 0 mm 1 mps 658 mmHg 59%
    12:00 +9°C° 0 mm 2 mps 657 mmHg 57%
    13:00 +9°C° 0 mm 2 mps 657 mmHg 59%
    14:00 +9°C° 0 mm 2 mps 656 mmHg 61%
    15:00 +9°C° 0 mm 2 mps 656 mmHg 62%
    16:00 +8°C° 0 mm 1 mps 656 mmHg 69%
    17:00 +7°C° 0 mm 1 mps 655 mmHg 77%
    18:00 +5°C° 0 mm 1 mps 655 mmHg 84%
    19:00 +4°C° 0.1 mm 0 mps 655 mmHg 85%
    20:00 +4°C° 0.1 mm 0 mps 655 mmHg 86%
    21:00 +4°C° 0.1 mm 0 mps 655 mmHg 87%
    22:00 +3°C° 0.1 mm 0 mps 655 mmHg 88%
    23:00 +3°C° 0.1 mm 0 mps 654 mmHg 89%
    Show more